METAR AND TAF INFORMATION


GMMX 211630Z 29009KT 240V320 9999 BKN020 21/06 Q1009 NOSIG
GMMX 211600Z VRB04KT 9999 BKN020 21/06 Q1009 NOSIG
TAF GMMX 211100Z 2112/2218 26006KT 8000 SCT023 TEMPO 2116/2121 34016KT

 AIRPORT MAP

 RUNWAY INFORMATION
Runway 10 Runway length 10170 ft Runway width 148 ft
Runway elevation 1506 ft Runway displaced threshold 918 ft Runway heading 96
Runway 28 Runway length 10170 ft Runway width 148 ft
Runway elevation 1545 ft Runway displaced threshold 0 ft Runway heading 276

 AIRPORT FREQUENCIES
Type APP Name MARRAKECH Frequency 119.7 MHZ
Type TWR Name MARRAKECH Frequency 118.7 MHZ

 AIRPORT NEAR NAVIGATION AIDS
Type NDB Name Marrakech Frequency 267 KHZ
Type VOR-DME Name Marrakech Frequency 113300 KHZ